Lapse_Rate
6.1 6.3 6.6 6.5 7.6 7.4 7.8 8.3 8.4 8.3 7.9 7.8 7.8 8.0 7.9 7.3 6.7 5.7 4.7 6.0 6.1 8.5 8.8 7.2 6.9 6.7 7.1 6.3 6.6 6.7 6.5 6.5 6.5 6.5 6.5 6.1 6.4 5.5 5.5 5.8 6.4 6.3 4.9 5.2 4.5
4.8 5.9 6.7 7.0 7.8 7.6 7.9 7.9 8.5 7.9 7.6 7.7 7.8 7.9 7.7 7.2 5.6 4.5 6.0 8.1 9.1 9.2 7.2 6.7 6.3 5.7 5.8 6.1 6.2 6.5 6.5 6.5 6.5 6.5 6.5 6.4 6.2 5.6 5.9 5.8 5.2 6.0 5.3 4.9 4.4
4.7 5.5 6.6 7.5 8.6 7.7 7.9 7.9 8.4 7.7 7.6 7.5 7.7 7.6 7.5 6.8 5.7 5.4 8.0 9.6 9.7 7.7 6.6 6.3 6.5 6.5 6.3 6.6 5.8 6.3 6.5 6.5 6.6 6.0 6.5 6.5 6.3 5.5 6.2 6.5 5.3 6.4 6.0 4.7 4.1
4.3 5.1 6.7 7.7 7.9 8.2 7.8 8.1 8.2 7.9 7.8 7.5 7.5 7.6 7.4 6.4 6.5 7.4 8.7 9.7 9.6 7.1 7.0 6.7 6.6 6.4 6.5 6.5 6.2 6.5 6.3 6.5 6.6 6.2 6.8 6.5 6.3 6.0 5.7 6.0 4.1 6.5 5.2 5.7 5.6
4.4 4.9 5.2 7.2 7.5 7.8 7.9 8.4 8.2 8.0 7.5 7.4 7.6 7.5 6.8 6.3 5.0 7.3 9.5 8.5 7.5 7.3 7.1 6.6 6.2 6.5 6.5 6.4 6.1 6.5 6.5 6.5 6.7 6.1 6.5 6.5 6.5 6.1 5.8 4.6 3.7 4.7 5.7 4.5 4.0
4.5 4.6 5.2 7.3 7.7 8.0 8.1 8.3 8.1 8.1 7.3 7.4 7.9 7.4 6.5 6.3 6.7 7.6 7.4 7.6 7.3 6.9 7.0 7.0 6.7 6.6 6.6 6.3 6.5 5.9 6.5 6.4 6.6 6.7 7.0 6.6 6.4 6.1 5.8 4.5 3.2 3.6 4.9 6.6 6.1
4.5 4.4 5.0 6.2 7.5 7.9 8.3 8.5 8.1 7.4 7.0 7.4 7.9 7.3 6.0 4.7 7.1 6.8 7.6 7.4 6.6 6.4 6.8 6.7 7.3 7.4 6.7 6.5 6.4 6.3 6.5 6.5 6.5 6.6 6.6 6.8 6.5 6.5 5.5 4.6 4.7 3.3 4.4 4.7 5.0
4.8 4.2 4.6 4.8 6.9 7.4 7.9 8.3 6.8 6.6 7.0 7.5 7.8 6.5 4.7 6.3 6.7 7.0 6.8 6.3 6.1 6.2 6.5 6.5 7.2 7.2 7.2 6.3 6.1 6.5 6.5 6.5 6.5 6.5 6.7 6.6 6.5 6.5 5.3 5.3 4.8 3.7 2.7 3.9 4.8
5.1 4.1 4.7 6.0 6.7 6.9 7.6 7.6 6.8 6.5 7.3 7.6 6.4 6.2 5.0 7.3 7.1 7.1 7.0 7.1 6.5 6.2 6.1 7.6 7.4 7.1 6.9 6.5 6.5 6.5 6.5 6.5 6.5 6.5 6.5 6.5 6.5 6.5 5.4 5.4 5.0 4.0 3.0 3.1 3.3
5.6 4.5 4.9 5.4 6.6 6.7 7.7 7.0 6.2 6.1 6.7 7.3 7.2 6.6 5.9 7.0 7.5 7.8 7.2 7.1 6.6 6.7 7.1 7.0 6.8 6.5 6.5 6.5 6.5 6.5 6.5 6.5 6.5 6.5 6.5 6.5 6.5 6.5 5.7 5.7 5.6 4.1 4.1 3.3 2.9
5.5 5.0 4.1 5.6 6.8 6.5 6.4 4.8 5.1 5.6 6.3 5.3 5.8 5.9 6.3 7.4 7.2 6.9 6.8 6.4 6.6 7.0 6.5 6.7 6.5 6.5 6.5 6.5 6.5 6.5 6.5 6.5 6.5 6.5 6.5 6.5 6.5 6.5 6.4 5.9 5.8 5.7 4.8 4.6 4.1
5.6 4.3 4.0 5.8 6.5 6.8 4.8 4.6 5.6 6.1 6.0 5.2 5.9 6.3 6.7 7.3 6.6 7.2 7.3 6.7 6.6 6.5 6.5 6.5 6.5 6.5 6.5 6.5 6.5 6.5 6.5 6.5 6.5 6.5 6.5 6.5 6.5 6.5 6.5 6.4 6.0 5.7 5.2 4.7 4.2
5.8 4.2 4.9 5.8 6.4 5.5 4.7 5.1 5.3 6.0 6.0 6.3 6.2 6.7 6.7 7.0 6.7 7.0 6.9 7.0 6.5 6.5 6.5 6.5 6.5 6.5 6.5 6.5 6.5 6.5 6.5 6.5 6.5 6.5 6.5 6.5 6.5 6.5 6.5 6.6 5.4 5.0 4.3 4.2 4.2
6.2 4.8 5.4 5.5 5.7 4.5 5.3 5.9 5.3 5.1 6.5 6.5 6.5 6.6 6.5 6.5 6.4 6.9 7.2 7.0 6.6 6.5 6.5 6.5 6.5 6.5 6.5 6.5 6.5 6.5 6.5 6.5 6.5 6.5 6.5 6.5 6.5 6.5 6.5 6.5 6.5 4.8 3.8 3.1 3.0
6.4 5.2 5.1 5.9 4.6 5.5 5.7 4.9 4.5 4.0 6.5 6.5 6.5 6.9 6.3 6.4 6.8 6.7 6.4 6.8 6.5 6.5 6.5 6.5 6.5 6.5 6.5 6.5 6.5 6.5 6.5 6.5 6.5 6.5 6.5 6.5 6.5 6.5 6.5 6.5 6.5 6.2 3.7 2.4 2.1
5.9 5.3 6.5 5.9 4.6 5.7 5.1 4.7 4.1 6.5 6.5 6.5 6.5 6.5 6.5 6.5 6.7 7.1 6.8 6.4 6.8 6.5 6.5 6.5 6.7 6.5 6.5 6.5 6.5 6.5 6.5 6.5 6.5 6.5 6.5 6.5 6.5 6.5 6.5 6.5 6.5 6.1 3.6 2.6 1.6
5.7 5.5 6.5 5.7 5.6 5.3 4.7 4.1 6.5 6.5 6.5 6.5 6.5 6.5 6.5 6.5 6.5 6.5 6.5 6.5 6.5 6.5 6.5 6.5 6.5 6.5 6.4 6.5 6.5 6.5 6.5 6.5 6.5 6.5 6.5 6.5 6.5 6.5 6.5 6.5 6.5 6.5 3.5 1.8 1.8
5.7 6.3 6.5 6.5 5.2 5.1 4.0 6.1 6.5 6.5 6.5 6.5 6.5 6.5 6.5 6.5 6.5 6.5 6.5 6.5 6.5 6.5 6.5 6.5 6.5 6.5 6.5 6.5 6.5 6.5 6.5 6.5 6.5 6.5 6.5 6.5 6.5 6.5 6.5 5.9 5.7 5.3 5.3 3.9 2.5
6.1 6.0 6.0 5.2 5.5 4.4 3.9 6.5 6.5 6.5 6.5 6.5 6.5 6.5 6.5 6.5 6.5 6.5 6.5 6.5 6.5 6.5 6.5 6.5 6.5 6.5 6.5 6.5 6.5 6.5 6.5 6.5 6.5 6.5 6.5 6.5 6.5 6.5 6.5 6.5 6.0 5.2 3.4 2.9 2.4
6.2 6.7 6.0 5.4 5.8 4.3 5.8 6.5 6.5 6.5 6.5 6.5 6.5 6.5 6.5 6.5 6.5 6.5 6.5 6.5 6.5 6.5 6.5 6.5 6.5 6.5 6.5 6.5 6.5 6.5 6.5 6.5 6.5 6.5 6.5 6.5 6.5 6.5 6.5 6.5 6.5 6.4 4.7 3.3 2.5
6.6 6.9 5.8 5.7 5.8 5.0 6.5 6.5 6.5 6.2 6.3 6.5 6.5 6.5 6.5 6.5 6.5 6.5 6.5 6.5 6.5 6.5 6.5 6.5 6.5 6.5 6.5 6.5 6.5 6.5 6.5 6.5 6.5 6.5 6.5 6.5 6.5 6.5 6.5 6.5 6.5 6.3 4.3 3.0 2.1
6.3 6.5 5.8 5.4 6.4 6.4 6.5 6.5 6.5 6.4 6.3 6.5 6.5 6.5 6.5 6.5 6.5 6.5 6.5 6.5 5.7 6.3 6.5 6.5 6.5 6.5 6.5 6.5 6.5 6.5 6.5 6.5 6.5 6.5 6.5 6.5 6.5 6.5 6.5 6.5 5.9 5.5 4.0 3.3 3.0
6.9 6.8 5.9 6.1 6.5 6.5 6.5 6.5 6.5 6.5 6.5 6.5 6.5 6.5 6.5 6.5 6.5 6.5 6.5 6.3 5.6 6.5 6.5 6.5 6.5 6.5 6.5 6.5 6.5 6.5 6.5 6.5 6.5 6.5 6.5 6.5 6.5 6.5 6.3 6.3 5.1 5.2 4.2 3.1 2.7
6.5 6.5 6.5 6.6 6.5 6.5 6.5 6.5 6.5 6.2 6.5 6.4 6.5 6.5 6.5 6.5 6.5 6.5 6.5 6.5 5.9 6.3 6.7 6.2 6.5 6.5 6.5 6.5 6.5 6.5 6.5 6.5 6.5 6.5 6.5 6.5 6.5 6.5 6.5 6.5 5.6 4.0 3.9 2.6 2.2
5.0 6.2 6.4 6.5 6.5 6.5 6.5 6.5 6.5 6.5 6.4 6.2 6.5 6.5 6.5 6.5 6.5 6.5 6.5 6.5 6.3 6.0 6.2 6.5 6.5 6.5 6.5 6.5 6.5 6.5 6.5 6.5 6.5 6.5 6.5 6.5 6.5 6.5 6.5 6.5 5.3 4.5 3.5 3.1 2.9
5.0 5.4 4.2 5.7 5.6 6.5 6.5 6.5 6.5 6.5 6.5 6.5 6.5 6.5 6.5 6.5 6.5 6.5 6.5 6.5 6.5 6.5 6.5 6.5 6.5 6.5 6.5 6.5 6.5 6.5 6.5 6.5 6.5 6.5 6.5 6.5 6.5 6.5 5.6 4.8 4.8 3.8 3.6 3.5 3.4
2.7 4.2 3.7 6.6 6.5 6.5 6.5 6.5 6.5 6.4 6.3 6.2 6.3 6.5 6.5 6.5 5.5 4.9 5.0 4.8 6.1 6.5 6.5 6.5 6.5 6.5 6.5 6.5 6.5 6.5 6.5 6.5 6.5 6.5 6.5 6.5 6.5 6.6 6.5 6.2 5.3 4.7 4.5 3.9 3.6
Wind_Speed
16 16 14 13 14 7 8 9 13 13 7 5 7 9 9 8 8 2 4 6 4 8 3 3 4 5 2 2 2 3 6 12 13 10 7 3 10 4 1 11 6 17 12 9 14
15 17 15 13 14 9 9 8 10 11 7 4 6 7 7 7 2 5 8 6 6 2 3 3 3 5 3 2 3 5 9 15 3 5 4 11 5 5 5 6 5 8 7 15 19
17 18 16 13 12 10 8 8 8 10 10 4 5 6 7 4 2 5 3 3 2 4 3 2 1 1 3 3 4 4 13 15 9 9 5 6 6 6 5 7 7 21 21 21 17
18 17 14 14 11 12 8 8 7 8 9 5 4 6 8 1 3 3 4 3 6 7 4 1 1 2 5 6 5 6 8 10 13 7 4 6 10 8 5 2 5 18 26 20 19
18 15 13 12 10 11 9 7 5 8 7 5 3 5 2 1 6 4 2 6 5 3 3 3 4 3 6 5 5 9 11 5 14 5 6 8 7 7 6 4 5 17 21 26 26
18 15 14 10 10 10 7 7 4 6 5 4 2 2 2 2 4 1 4 2 2 3 3 3 4 7 6 7 6 5 14 12 7 11 5 10 5 5 2 7 6 19 22 16 17
23 16 12 8 10 10 7 7 6 5 4 5 2 2 2 9 1 5 2 1 3 3 3 6 10 12 7 4 7 9 4 11 13 9 7 10 8 6 7 5 4 9 16 19 14
20 16 14 10 10 6 6 8 3 3 4 6 1 3 5 5 2 2 3 2 2 2 3 3 3 10 7 2 3 8 6 3 10 11 6 8 9 2 9 2 4 6 7 14 18
22 18 15 8 9 6 5 6 3 1 3 2 2 3 7 8 1 4 5 4 3 2 3 2 2 3 4 2 4 7 4 6 5 13 7 6 9 8 9 4 5 5 6 6 4
22 17 13 9 8 7 6 3 1 4 1 2 1 0 4 1 2 2 4 4 4 2 3 5 1 4 3 5 8 7 7 6 6 8 12 6 12 17 9 6 3 5 4 4 6
17 15 15 10 9 7 3 3 3 3 1 5 4 3 3 2 0 1 2 5 2 2 4 3 3 6 15 12 9 5 4 7 3 12 6 9 8 14 13 4 5 3 3 3 3
20 20 16 13 11 6 5 3 3 3 2 6 4 4 4 2 2 2 3 2 3 5 5 4 6 7 8 9 11 11 9 10 14 13 5 6 6 12 11 5 4 3 2 2 1
18 22 16 13 11 5 3 3 2 3 2 3 4 3 3 3 2 2 2 4 4 7 9 6 2 11 7 7 10 5 13 9 9 10 4 5 4 4 5 5 4 5 4 2 0
16 21 19 17 5 4 3 4 5 3 4 3 2 3 2 3 1 3 4 5 2 4 4 5 4 6 7 5 9 6 9 13 18 9 4 2 2 4 4 11 6 7 5 6 5
17 23 22 18 5 4 4 10 6 4 3 3 1 1 1 2 2 4 3 6 4 4 5 1 5 6 2 3 8 3 13 12 10 5 5 4 2 4 3 8 9 6 7 8 8
18 25 22 4 1 1 13 7 4 6 4 2 2 2 4 3 3 3 4 4 3 5 2 4 2 3 3 3 8 12 15 7 3 2 3 4 2 5 2 6 2 4 8 7 7
25 25 15 6 4 12 7 3 5 4 3 2 2 3 3 3 2 1 3 4 2 2 6 7 14 3 6 10 7 7 5 3 3 3 2 1 1 6 3 7 3 8 9 7 6
26 23 7 2 13 9 3 4 4 2 4 1 2 3 3 3 3 3 3 4 3 3 3 5 5 10 12 5 4 4 3 3 4 3 2 5 3 4 2 6 4 1 3 3 6
28 4 3 2 11 3 4 3 6 5 5 6 3 2 4 2 0 4 5 3 3 5 4 4 5 4 5 2 2 4 4 2 6 4 4 1 5 6 4 6 6 7 8 8 7
6 5 2 5 4 4 4 3 2 3 4 2 3 2 1 3 5 3 5 3 6 4 0 2 5 4 5 3 4 3 1 2 3 4 2 1 3 3 8 7 6 8 8 7 6
8 5 2 6 1 3 3 4 3 3 2 3 4 3 4 1 1 2 3 3 5 7 4 2 3 2 2 4 3 5 3 4 5 4 3 2 3 3 6 6 3 6 6 6 7
3 4 2 2 3 1 3 5 4 4 2 0 2 2 4 2 4 3 2 1 6 4 4 4 4 4 2 4 2 2 2 3 4 1 2 2 3 2 4 2 4 4 4 3 3
3 3 2 1 4 3 3 3 3 3 3 2 1 2 3 2 3 3 2 3 6 5 2 1 3 3 6 5 4 4 3 3 5 4 1 3 4 3 3 5 4 4 5 5 6
4 4 2 2 2 4 4 4 4 2 4 2 1 1 3 3 5 3 2 3 5 3 7 4 3 3 5 3 2 2 3 3 4 3 3 4 3 4 7 6 7 6 5 6 7
2 3 3 7 7 4 2 4 5 4 1 1 0 2 4 3 2 3 2 4 4 7 4 4 4 3 3 1 3 2 3 2 2 2 4 3 5 6 7 6 7 6 6 8 9
4 4 2 1 8 5 1 4 5 3 4 3 3 2 2 4 3 5 4 1 0 5 3 3 1 2 5 7 5 1 1 2 3 3 4 4 7 5 5 5 6 8 8 8 8
1 1 4 7 5 5 4 6 7 7 3 1 6 4 4 2 4 5 3 6 3 2 2 3 3 3 3 4 3 3 1 0 2 1 1 2 5 5 7 7 6 7 6 7 7
Wind_Direction
279 284 290 300 298 293 311 309 321 310 302 332 326 317 317 323 325 358 236 217 201 276 12 334 16 335 325 228 219 325 242 231 215 219 234 255 238 203 114 142 174 177 153 148 118
258 271 281 290 296 294 303 293 315 310 305 321 319 318 319 326 330 277 243 265 265 318 75 75 322 9 310 221 224 205 225 233 222 212 233 247 279 207 151 174 176 148 122 143 142
245 258 269 282 295 299 300 290 310 306 322 298 310 315 320 335 328 250 222 206 332 98 88 90 91 130 239 227 214 211 236 229 227 221 291 302 294 308 181 199 191 178 157 160 150
238 252 264 275 290 294 287 288 294 316 326 271 295 309 327 109 279 250 202 261 338 124 92 72 101 192 212 221 197 260 249 246 250 224 268 291 317 288 211 198 266 189 159 144 158
231 241 254 267 278 285 281 292 283 320 335 289 280 333 33 26 255 264 285 2 95 133 181 197 211 209 222 198 206 237 246 252 239 199 274 271 266 264 275 318 273 143 155 162 172
223 229 240 254 270 277 284 301 272 319 331 293 280 6 98 275 250 206 348 151 141 162 215 172 243 228 258 225 215 230 222 253 274 232 245 288 276 262 277 325 225 156 169 171 167
217 215 222 240 260 267 276 280 301 298 298 300 245 116 98 239 246 337 278 212 179 192 227 190 237 231 191 252 216 264 271 225 235 219 225 355 276 229 302 294 105 175 163 163 171
218 200 207 201 253 250 268 276 286 300 290 279 200 79 247 250 273 290 136 217 216 217 241 293 126 239 226 309 263 206 246 210 194 171 200 89 266 1 316 17 63 60 146 177 171
228 203 193 196 227 211 261 256 263 335 15 165 71 115 273 318 5 236 185 233 189 222 218 178 27 278 119 116 246 176 193 196 143 182 128 154 278 357 334 6 66 46 53 127 160
239 196 172 186 205 211 238 260 65 46 60 104 200 336 272 263 258 264 210 221 234 248 280 210 233 204 177 184 208 166 193 179 183 160 183 232 281 299 305 333 17 47 41 80 175
270 181 160 182 196 210 152 122 54 25 229 193 195 243 284 290 294 236 349 334 215 187 255 212 202 202 192 192 236 285 157 125 158 149 115 223 256 265 289 318 346 42 55 88 86
288 166 164 183 188 197 137 194 192 156 256 226 254 263 265 181 278 152 326 277 232 263 268 236 237 190 150 209 207 196 148 138 110 121 99 187 240 282 315 324 302 312 339 42 52
296 162 166 176 175 144 191 211 129 104 93 289 208 231 221 163 229 166 84 312 271 261 248 247 316 157 151 188 167 167 154 152 131 144 163 151 259 232 281 309 263 258 257 272 215
296 160 170 156 138 161 207 171 126 93 63 275 250 264 168 151 276 179 183 213 243 282 265 245 149 144 154 134 162 162 173 136 127 182 90 331 291 249 299 308 258 257 247 271 262
280 168 171 157 143 175 170 132 116 62 39 247 209 200 149 200 18 248 189 198 259 267 231 114 165 102 119 211 172 127 142 125 102 91 121 360 38 296 64 304 266 270 241 241 249
232 170 176 145 71 172 129 111 61 45 262 325 236 329 341 179 205 245 237 223 262 326 23 95 137 152 283 344 130 123 94 76 86 199 72 162 67 318 173 233 205 238 243 232 231
183 167 171 153 188 156 118 67 59 125 305 279 101 23 339 292 341 212 340 347 1 85 355 4 27 25 53 66 38 77 52 52 37 40 118 96 100 229 263 260 281 274 278 240 210
167 162 165 229 142 143 80 65 97 157 216 98 84 2 330 346 302 8 130 5 344 44 73 59 33 2 342 45 94 28 58 143 132 136 60 71 256 264 323 315 303 182 348 107 167
150 120 122 193 147 81 83 84 207 193 179 143 75 89 313 325 346 47 20 355 327 1 96 100 60 316 44 347 87 270 64 181 102 42 73 256 293 311 6 36 40 60 56 59 79
137 124 102 151 179 69 77 216 178 202 120 91 114 231 307 323 15 32 18 333 324 33 266 158 99 6 346 345 62 117 144 112 355 103 91 310 274 260 351 348 18 31 36 28 40
117 115 135 157 117 58 174 216 202 196 128 112 168 148 256 330 48 34 351 349 355 337 49 99 82 318 19 9 358 355 14 40 118 72 130 111 305 231 274 283 8 34 25 31 30
97 103 151 107 112 126 198 201 168 133 179 117 134 135 170 176 41 64 78 304 350 335 29 360 99 66 77 303 307 1 58 54 102 319 63 105 293 22 304 49 82 59 25 353 24
88 82 62 60 142 188 253 204 133 129 153 145 201 235 200 119 82 71 19 342 5 45 60 23 10 64 357 359 360 61 20 87 77 53 301 105 265 349 22 49 39 22 1 1 345
112 120 85 261 142 156 166 152 114 106 129 152 279 156 95 51 21 119 42 3 10 47 58 94 74 133 165 196 152 145 138 107 96 101 177 225 287 302 335 349 337 332 293 325 315
66 165 193 182 191 187 200 136 119 129 73 154 315 212 145 109 66 84 43 4 12 352 41 78 88 63 60 36 67 53 57 103 95 159 140 286 220 273 282 289 288 295 296 314 312
125 142 58 82 139 160 313 186 131 114 129 203 172 117 91 135 178 172 136 148 82 4 52 7 116 90 8 19 19 355 234 165 197 204 258 272 275 250 309 334 320 299 306 303 296
173 3 97 136 124 155 203 171 162 127 40 115 158 113 76 61 105 100 105 99 89 96 68 60 109 62 304 352 347 7 333 176 35 202 222 246 253 349 324 337 314 314 316 294 299